Clinton-Sherman, OK

12:59 PM CST on February 18, 2018 (GMT -0600)
Clinton-Sherman

Weather History for KCSM - September, 2013

Change the Weather History Date:

Thursday, September 26, 2013

  Actual Average Record
Temperature  
Mean Temperature 81 °F -  
Max Temperature 95 °F 80 °F 95 °F (2013)
Min Temperature 69 °F 55 °F 41 °F (2000)
Cooling Degree Days 16    
Growing Degree Days 31 (Base 50)    
Moisture  
Dew Point 55 °F    
Average Humidity 44    
Maximum Humidity 68    
Minimum Humidity 25    
Precipitation  
Precipitation 0.00 in - - ()
Sea Level Pressure  
Sea Level Pressure 29.73 in    
Wind  
Wind Speed 20 mph (South)    
Max Wind Speed 30 mph    
Max Gust Speed 38 mph    
Visibility 10 miles    
Events      
Averages and records for this station are not official NWS values.
T = Trace of Precipitation, MM = Missing Value Source: NWS Daily Summary

Daily Weather History Graph

Daily Weather History Graph

Search for Another Location

Airport or City:

Trip Planner

Search our weather history database for the weather conditions in past years. The results will help you decide how hot, cold, wet, or windy it might be!

Date:

Astronomy

Sep. 26, 2013 Rise Set
Actual Time 7:28 AM CDT 7:27 PM CDT
Civil Twilight 7:02 AM CDT 7:52 PM CDT
Nautical Twilight 6:33 AM CDT 8:22 PM CDT
Astronomical Twilight 6:03 AM CDT 8:51 PM CDT
Moon No Moon Rise 2:10 PM CDT (9/26)
Length of Visible Light 12h 50m
Length of Day
11h 59m
Waning Gibbous, 54% of the Moon is Illuminated
Sep 26
Waning Gibbous
Sep 26
Last Quarter
Oct 4
New
Oct 11
First Quarter
Oct 18
Full

Hourly Weather History & Observations

Time (CDT) Temp. Heat Index Dew Point Humidity Pressure Visibility Wind Dir Wind Speed Gust Speed Precip Events Conditions
12:53 AM 73.9 °F - 55.9 °F 53% 29.70 in 10.0 mi SSE 13.8 mph - N/A   Clear
1:53 AM 73.0 °F - 55.9 °F 55% 29.69 in 10.0 mi South 19.6 mph - N/A   Clear
2:53 AM 73.0 °F - 57.0 °F 57% 29.69 in 10.0 mi South 20.7 mph - N/A   Clear
3:53 AM 72.0 °F - 57.0 °F 59% 29.69 in 10.0 mi South 19.6 mph - N/A   Clear
4:53 AM 71.1 °F - 57.9 °F 63% 29.70 in 10.0 mi South 18.4 mph - N/A   Clear
5:53 AM 70.0 °F - 57.9 °F 65% 29.70 in 10.0 mi South 18.4 mph - N/A   Clear
6:53 AM 69.1 °F - 57.9 °F 68% 29.72 in 10.0 mi South 18.4 mph - N/A   Clear
7:53 AM 69.1 °F - 57.9 °F 68% 29.74 in 10.0 mi South 17.3 mph - N/A   Clear
8:53 AM 73.0 °F - 57.9 °F 59% 29.76 in 10.0 mi South 21.9 mph - N/A   Clear
9:53 AM 78.1 °F - 57.9 °F 50% 29.76 in 10.0 mi South 23.0 mph - N/A   Clear
10:53 AM 82.9 °F 82.4 °F 57.0 °F 41% 29.76 in 10.0 mi South 24.2 mph 32.2 mph N/A   Clear
11:53 AM 86.0 °F 84.9 °F 57.0 °F 37% 29.76 in 10.0 mi South 26.5 mph 32.2 mph N/A   Clear
12:53 PM 89.1 °F 87.3 °F 55.9 °F 32% 29.74 in 10.0 mi South 24.2 mph 34.5 mph N/A   Clear
1:53 PM 91.9 °F 90.0 °F 55.0 °F 29% 29.72 in 10.0 mi South 29.9 mph 38.0 mph N/A   Clear
2:53 PM 93.9 °F 91.7 °F 54.0 °F 26% 29.70 in 10.0 mi South 27.6 mph 35.7 mph N/A   Clear
3:53 PM 93.9 °F 91.4 °F 53.1 °F 25% 29.70 in 10.0 mi South 29.9 mph 36.8 mph N/A   Clear
4:53 PM 93.0 °F 90.6 °F 53.1 °F 26% 29.70 in 10.0 mi South 27.6 mph 34.5 mph N/A   Clear
5:53 PM 91.9 °F - 51.1 °F 25% 29.70 in 10.0 mi SSE 28.8 mph 36.8 mph N/A   Clear
6:53 PM 88.0 °F - 51.1 °F 28% 29.72 in 10.0 mi South 21.9 mph 33.4 mph N/A   Clear
7:53 PM 84.9 °F 83.2 °F 53.1 °F 33% 29.74 in 10.0 mi South 21.9 mph - N/A   Clear
8:53 PM 82.0 °F 81.3 °F 54.0 °F 38% 29.75 in 10.0 mi SSE 20.7 mph - N/A   Clear
9:53 PM 80.1 °F 80.0 °F 54.0 °F 40% 29.76 in 10.0 mi South 24.2 mph - N/A   Clear
10:53 PM 78.1 °F - 54.0 °F 43% 29.78 in 10.0 mi SSE 18.4 mph - N/A   Clear
11:53 PM 75.9 °F - 54.0 °F 46% 29.79 in 10.0 mi SSE 18.4 mph - N/A   Clear